Estación Meteorológica Peña el Pijo (Robertgarden) [ 09/28/20 19:08:24 CEST ]

Fecha Hora Presion(HPa) Temp (°C) Humedad % Rocio (°C) Viento ( m/s) Direccion Lluvia 1Hora(mm) Lluvia 24H(mm) LLuvia Total(mm)
2020-Mar-14 01:09:24 1009.300 - - - - N     39.88
2020-Mar-14 02:12:18 1009.200 - - - - N     39.88
2020-Mar-14 03:08:56 1009.000 - - - - N     39.88
2020-Mar-14 04:08:52 1008.900 - - - - N     39.88
2020-Mar-14 05:09:19 1009.000 - - - - N     39.88
2020-Mar-14 06:09:36 1009.200 - - - - N     39.88
2020-Mar-14 07:09:31 1009.200 - - - - N     39.88
2020-Mar-14 08:09:09 1009.500 - - - - N     39.88
2020-Mar-14 09:09:16 1009.700 - - - - N     39.88
2020-Mar-14 10:08:52 1009.800 - - - - N     39.88
2020-Mar-14 11:09:09 1009.500 - - - - N     39.88
2020-Mar-14 12:09:05 1009.400 - - - - N     39.88
2020-Mar-14 13:08:50 1009.000 - - - - N     39.88
2020-Mar-14 14:09:09 1008.600 - - - - N     39.88
2020-Mar-14 15:09:06 1008.300 - - - - N     39.88
2020-Mar-14 16:09:06 1008.200 - - - - N     39.88
2020-Mar-14 17:09:37 1008.100 - - - - N     39.88
2020-Mar-14 18:08:54 1008.200 - - - - N     39.88
2020-Mar-14 19:08:54 1008.500 - - - - N     39.88
2020-Mar-14 20:08:49 1008.700 - - - - N     39.88
2020-Mar-14 21:09:17 1009.100 - - - - N     39.88
2020-Mar-14 22:08:59 1009.200 - - - - N     39.88
2020-Mar-14 23:09:19 1009.600 - - - - N     39.88

Temperatura Máxima:    Temperatura Mínima:
Presión Máxima:1009.800 Hpa    Presión Mínima:1008.100 Hpa


Volver